sat.trackr.live / text

‹ back to catalog

STARLINK-35840

NORAD 66834 · 2025-280P

PAYLOAD ACTIVE UNKNOWN

§ Identity

Operator
Country
US
Launch date
2025-12-02
Launch site
AFWTR
Launch vehicle
Mass (kg)
RCS (m²)

Purposes: comms

External: N2YO · Heavens-Above · Gunter

§ Orbital elements

Epoch: 2026-09-20T05:58:15.455136Z

Period
96.11 min
Inclination
70.0006°
Eccentricity
0.0003304
Mean motion
14.98340741 rev/d
Perigee alt
569.7 km
Apogee alt
574.3 km
Semi-major
6,950.2 km
B*
1.2703e-4
RAAN
203.7160°
Arg perigee
263.5832°
Mean anomaly
96.4950°
Rev number
4,522

§ Raw data

STARLINK-358401 66834U 25280P   26263.24878999  .00001423  00000+0  12703-3 0  99942 66834  70.0006 203.7160 0003304 263.5832  96.4950 14.98340741 45227

JSON: /api/v1/satellites/66834 · /tle

For live sub-satellite position, see the globe view (requires WebGL).

§ Visibility from observer

Set your observer location to see the next 7 days of passes ≥ 10°. The values pass through the URL so the page stays shareable.

No JS? Fill the form by hand. The geolocation button needs JavaScript.